User: anonymous   Login
Location: NJAA Observatory
(40.6819°N, 74.8979°W)
Time: 20:25:51
(UTC-04:00)
Language:

S-56A Canister/Altair - Orbit

View from above orbital plane
View from above orbital plane
View from above satellite
View from above satellite

Ground track
Ground track

The orbit data is extracted from the following two-line orbital elements,

1 00082U 61004B   16126.74817150  .00000128  00000-0  15913-3 0  9993
2 00082  38.8611   4.5933 1167055  28.0331 337.8607 12.25757696623268
Epoch (UTC): 05 May 2016 17:57:22
Eccentricity: 0.1167055
inclination: 38.8611°
perigee height: 640 km
apogee height: 2495 km
right ascension of ascending node: 4.5933°
argument of perigee: 28.0331°
revolutions per day: 12.25757696
mean anomaly at epoch: 337.8607°
orbit number at epoch: 62326

The dashed part of the orbit path shows where the satellite is in the earth's shadow,  

DLR